Location: Arroyo de Conejeros
(40.4906°N, 4.1183°W)
Time: 21:14:58
(UTC+00:00)

Daily predictions for brighter satellites

Satellite Brightness Start Highest point End
(mag) Time Altitude Azimuth Time Altitude Azimuth Time Altitude Azimuth
Cosmos 1238 Rocket 3.8 19:53:23 10° S 19:58:33 81° W 20:04:20 10° N
BREEZE-M DEB (TANK) 3.0 19:57:07 10° SW 20:00:05 56° SE 20:05:34 10° ENE
Cosmos 2151 3.5 19:56:38 10° NNW 20:00:44 62° W 20:04:48 10° S
ATLAS 3B R/B 4.1 19:54:59 10° NNW 20:01:56 33° NE 20:08:50 10° ESE
Cosmos 1980 3.8 19:57:53 10° SSW 20:03:32 89° ESE 20:09:12 10° NNE
SPOT 5 4.3 20:03:02 10° ESE 20:06:30 21° ENE 20:09:51 10° NNE
Cosmos 1812 3.6 20:05:36 10° SSW 20:09:04 49° W 20:12:34 10° N
Cosmos 1464 Rocket 4.4 20:08:22 10° N 20:14:27 47° ENE 20:20:23 10° SSE
Okean O Rocket 1.6 20:10:32 10° SSE 20:14:56 74° ENE 20:19:23 10° N
Terra 3.7 20:14:39 10° E 20:17:14 15° ENE 20:19:50 10° NNE
ATLAS 2AS CENTAUR R/B 3.3 20:15:00 10° SW 20:22:25 71° NW 20:29:35 10° NNE
ERS-1 Rocket 4.5 20:18:55 10° ESE 20:22:38 21° ENE 20:26:21 10° NNE
Cosmos 1782 2.6 20:23:37 10° S 20:27:23 74° E 20:31:12 10° NNE
Intercosmos 24 4.3 20:29:09 10° SSW 20:32:41 62° W 20:37:00 10° N
Cosmos 1943 Rocket 2.2 20:30:19 10° NNW 20:36:01 81° ENE 20:41:02 13° SSE
CZ-4B R/B 4.1 20:32:25 10° S 20:37:35 46° W 20:42:43 10° NNW
Cosmos 972 4.3 20:32:44 10° S 20:37:37 69° ESE 20:42:30 10° NNE
ISS -0.8 20:36:42 10° NNW 20:38:09 12° N 20:39:36 10° NNE
Cosmos 2278 Rocket 2.8 20:35:17 10° NNW 20:40:48 54° WSW 20:46:16 10° S
NOSS 3-1 (A) 4.4 20:33:40 10° NNW 20:41:00 56° NE 20:48:11 16° SE
NOSS 3-1 (C) 4.2 20:33:45 10° NW 20:41:24 89° SW 20:49:24 14° SSE
OAO 2 Rocket 3.8 20:36:23 10° WSW 20:41:26 46° S 20:45:08 17° ESE
USA 245 4.4 20:42:40 11° ENE 20:42:40 11° ENE 20:43:26 10° NE
Meteor 1-25 Rocket 4.3 20:37:05 10° N 20:42:42 83° W 20:48:21 10° S
SL-24 R/B - RUBIN 2 4.4 20:37:06 10° SSW 20:42:58 67° ESE 20:49:29 10° NE
Cosmos 2112 Rocket 4.2 20:41:50 10° S 20:46:59 51° ESE 20:52:07 10° NNE
Okean-O 2.6 20:45:51 13° SSE 20:49:45 89° NE 20:54:10 10° NNW
USA 290 3.0 20:49:24 10° N 20:52:25 35° ENE 20:53:34 26° ESE
Cosmos-2242 4.1 20:49:23 10° SSW 20:53:23 45° W 20:57:28 10° N
Spot 2 Rocket 4.4 20:54:06 20° ESE 20:56:47 32° ENE 21:01:14 10° N
Cosmos 1680 Rocket 3.4 20:51:55 10° SSW 20:57:11 77° ESE 21:02:28 10° NNE
Cosmos 2034 Rocket 4.0 20:52:04 10° N 20:58:17 70° E 21:03:13 17° SSE
USA 32 4.4 21:01:10 22° SSE 21:04:09 44° E 21:09:04 10° NNE
Gbstr 26 Del rocket 3.7 20:59:27 10° WNW 21:05:31 65° SW 21:08:23 26° SSE
Cosmos 1933 4.2 21:02:20 10° SSW 21:06:09 48° W 21:09:59 10° N
Tsikada Rocket 4.0 21:00:58 13° S 21:06:22 63° E 21:12:30 10° NNE
SL-16 R/B 2.2 21:06:50 10° SSW 21:12:30 89° WNW 21:18:13 10° NNE
CZ-4C R/B 4.3 21:09:33 10° N 21:13:08 45° WNW 21:16:51 10° SSW
MetOp-B 4.2 21:11:56 20° S 21:15:47 80° WSW 21:21:11 10° NNW
MOS 1 Rocket 4.2 21:13:56 26° ESE 21:15:59 37° ENE 21:20:44 10° N
Lacrosse 5 rocket 3.3 21:14:57 10° WSW 21:18:49 33° NW 21:22:41 10° NNE
Ariane Rocket 3.3 21:16:50 29° SE 21:19:07 51° ENE 21:24:01 10° N
Lacrosse 5 1.9 21:15:37 10° NW 21:20:45 72° NE 21:23:08 32° ESE
Cosmos 2056 Rocket 3.6 21:15:39 10° NNW 21:21:01 64° ENE 21:23:29 32° SE
IRS-1C Rocket 4.1 21:17:46 22° S 21:21:13 79° WSW 21:26:31 10° NNW
Cosmos 1624 Rocket 4.0 21:18:10 10° NNW 21:23:20 65° ENE 21:25:36 33° SE
Cosmos 44 3.5 21:20:22 10° NNW 21:25:06 53° NE 21:26:45 34° ESE
Cosmos 2221 2.5 21:22:26 21° S 21:25:16 83° W 21:29:37 10° N
Spot 1 4.4 21:23:34 10° NNE 21:27:22 38° E 21:27:36 37° ESE
Resurs 01 Rocket 4.3 21:27:18 10° SW 21:29:48 15° W 21:32:17 10° WNW
Cosmos 2369 Rocket 2.7 21:24:48 10° NNW 21:30:10 45° ENE 21:32:23 30° ESE
USA 308 3.1 21:28:16 10° WNW 21:30:58 34° SW 21:31:01 34° SW
ATLAS 5 CENTAUR R/B 4.5 21:27:36 10° WNW 21:31:06 17° WSW 21:34:57 10° SSW
FALCON 9 R/B 3.4 21:27:18 10° WSW 21:32:44 60° S 21:51:49 10° ESE
Cosmos 2084 4.0 21:29:37 10° NNW 21:33:09 37° NE 21:33:53 33° ENE
Cosmos 921 Rocket 3.1 21:37:33 24° SSW 21:40:10 82° WNW 21:44:42 10° NNE
Landsat 4 3.6 21:42:40 57° SSW 21:43:10 67° WSW 21:46:39 10° NNW
SPOT 5 3.9 21:41:27 20° SSW 21:44:17 38° W 21:48:32 10° NNW
Okean 3 Rocket 3.6 21:43:11 10° N 21:47:32 58° E 21:48:05 53° ESE
GEOS 3 Rocket 4.1 21:44:06 10° NNE 21:49:10 59° NW 21:54:10 10° SW
SL-8 R/B 3.5 21:47:05 10° SW 21:51:49 80° SSE 21:56:36 10° ENE
ARGOS Delta rocket 4.3 21:49:27 31° SSW 21:51:52 60° W 21:56:48 10° NNW
ATLAS 3B R/B 3.1 21:45:30 10° NW 21:53:19 69° WSW 21:57:02 33° S
Terra 2.1 21:52:38 37° SSW 21:54:18 61° W 21:58:59 10° NNW
Landsat 5 3.1 21:51:17 10° NNE 21:54:55 71° E 21:54:55 71° E
Aureole 3 Rocket 3.9 21:51:34 10° NNW 21:55:18 47° W 21:57:21 29° SSW
Cosmos 1943 3.1 21:53:56 40° S 21:55:52 64° ESE 22:01:29 10° NNE
Cosmos 1048 Rocket 3.8 21:59:00 48° S 22:00:24 74° ESE 22:05:33 10° NNE
ERS-1 Rocket 3.7 21:58:51 28° SSW 22:01:02 45° W 22:05:52 10° NNW
Cosmos 1842 Rocket 3.6 22:01:42 53° SSW 22:02:41 78° W 22:07:08 10° N
Cosmos 494 Rocket 4.0 22:00:56 28° SSW 22:03:37 74° WNW 22:08:44 10° NNE
Meteor 1-10 Rocket 4.2 22:02:23 46° SSE 22:04:09 74° E 22:09:50 10° NNE
SPOT 3 Rocket 3.7 22:04:43 42° SSW 22:06:20 64° W 22:11:27 10° NNW
Cosmos 1656 Rocket 3.7 22:01:52 10° NNW 22:07:18 69° WSW 22:08:45 48° S
Meteor 1-19 Rocket 4.4 22:14:07 50° SE 22:15:00 55° E 22:20:42 10° NNE
Cosmos 1743 4.0 22:12:19 10° NNW 22:15:33 31° W 22:15:46 30° W
ISS -1.4 22:13:24 10° NNW 22:15:49 18° NNE 22:16:33 17° NE
ARIANE 5 R/B 3.9 22:16:04 28° ENE 22:16:04 28° ENE 22:19:37 10° N
Cosmos 1340 Rocket 4.3 22:17:22 28° NE 22:17:22 28° NE 22:19:42 10° NNE
USA 281 3.2 22:14:24 44° S 22:16:43 79° WSW 22:23:20 10° NNW
Meteor 1-11 Rocket 3.7 22:11:34 10° N 22:17:12 68° E 22:18:13 56° SE
Meteor 2-10 4.4 22:13:38 10° N 22:19:04 51° ENE 22:19:41 48° E
USA 59 Rocket 2.7 22:19:26 10° NNE 22:20:58 12° NE 22:22:39 10° ENE
Cosmos 1331 Rocket 4.1 22:17:31 10° NNW 22:22:42 58° ENE 22:23:13 55° E
Cosmos 1110 Rocket 4.0 22:19:20 10° NNW 22:24:39 67° ENE 22:25:12 62° ESE
CZ-2C R/B 4.3 22:23:49 10° NNE 22:27:22 44° ENE 22:27:22 44° ENE
Nadezhda 4 Rocket 3.9 22:30:39 59° SSE 22:31:44 72° E 22:37:56 10° NNE
Cosmos 2297 4.5 22:26:42 10° NW 22:32:04 42° WSW 22:33:19 37° SW
Cosmos 1726 3.7 22:29:18 10° NNW 22:31:07 28° NW 22:31:07 28° NW
Cosmos 2279 Rocket 4.2 22:27:32 10° NNW 22:33:38 62° W 22:35:28 43° SSW
Molniya-1 3.7 22:35:27 86° SSW 22:35:33 89° ESE 22:43:16 10° NE
USA 229 DEB 4.0 22:39:27 10° NW 22:47:02 73° WSW 22:49:11 52° S
USA 229 4.0 22:39:33 10° NW 22:47:09 74° WSW 22:49:18 52° S
Cosmos 1743 Rocket 3.9 22:44:12 10° N 22:47:56 64° N 22:47:56 64° N
Sich 1 3.4 22:48:54 10° N 22:52:35 61° NNW 22:52:35 61° NNW
Cosmos 1536 4.3 22:54:45 10° NNW 22:57:32 31° WNW 22:57:32 31° WNW
Cosmos 1975 4.4 22:54:48 10° N 22:57:09 29° NNE 22:57:09 29° NNE
Cosmos 1603 4.0 22:57:29 47° WSW 22:58:55 62° WNW 23:04:36 10° NNE
Lacrosse 5 3.9 22:59:46 10° WNW 23:02:19 18° WSW 23:02:19 18° WSW
Meteor 1-27 Rocket 4.2 23:04:40 46° WSW 23:05:38 52° WNW 23:11:01 10° N
Cosmos 1627 Rocket 4.4 23:05:12 66° ESE 23:05:38 68° E 23:11:56 10° NNE
Cosmos 1452 Rocket 4.0 23:02:09 10° NNW 23:07:02 49° W 23:07:02 49° W
USA 267 3.1 23:03:31 10° NE 23:10:03 72° SE 23:10:42 67° S
Cosmos 2026 Rocket 3.8 23:12:23 74° SE 23:12:51 79° E 23:19:09 10° N
Cosmos 2369 Rocket 3.6 23:09:25 10° NW 23:13:51 24° WSW 23:14:10 24° WSW
Cosmos 1833 Rocket 4.5 23:17:10 19° ENE 23:17:10 19° ENE 23:19:37 10° NE
Meteor 1-18 Rocket 4.2 23:33:57 86° W 23:33:58 86° W 23:39:57 10° N
ALOS 2 3.6 23:36:13 44° NNE 23:36:13 44° NNE 23:39:24 10° N
Spot 4 4.3 23:37:28 58° NNW 23:37:28 58° NNW 23:41:18 10° NNW
H-2A R/B 3.9 23:38:30 35° NW 23:38:30 35° NW 23:41:06 10° NNW
Cosmos 1553 Rocket 4.1 23:33:33 10° N 23:39:32 58° E 23:39:39 58° E
Meteor 2-4 Rocket 4.0 23:42:30 59° W 23:42:48 60° WNW 23:48:40 10° N
USA 234 4.3 23:38:50 13° E 23:44:08 41° NNE 23:50:11 10° NW
Lacrosse 4 Rocket 3.2 23:43:45 10° N 23:46:28 27° NNE 23:46:28 27° NNE
Cosmos 1818 4.0 23:53:37 56° NE 23:53:37 56° NE 23:57:58 10° NE
